Weather History for KSJT - December, 2012

Change the Weather History Date:

Saturday, December 22, 2012

  Actual Average Record
Temperature  
Mean Temperature 50 °F 46 °F  
Max Temperature 66 °F 59 °F 81 °F (1970)
Min Temperature 34 °F 33 °F 2 °F (1989)
Degree Days  
Heating Degree Days 15 19  
Month to date heating degree days 223 392  
Since 1 July heating degree days 528 792  
Cooling Degree Days 0 0  
Month to date cooling degree days 17 0  
Year to date cooling degree days 3243 2502  
Growing Degree Days 2 (Base 50)    
Moisture  
Dew Point 30 °F    
Average Humidity 43    
Maximum Humidity 66    
Minimum Humidity 19    
Precipitation  
Precipitation 0.00 in 0.03 in 1.09 in (1986)
Month to date precipitation 0.01 0.58  
Year to date precipitation 21.79 20.98  
Snow  
Snow 0.00 in 0.00 in 1.10 in (1990)
Month to date snowfall 0.0 0.2  
Since 1 July snowfall T 0.5  
Snow Depth 0.00 in    
Sea Level Pressure  
Sea Level Pressure 30.15 in    
Wind  
Wind Speed 10 mph (SSW)    
Max Wind Speed 25 mph    
Max Gust Speed 32 mph    
Visibility 10 miles    
Events      
T = Trace of Precipitation, MM = Missing Value Source: NWS Daily Summary

Daily Weather History Graph

Daily Weather History Graph

Search for Another Location

Airport or City:

Trip Planner

Search our weather history database for the weather conditions in past years. The results will help you decide how hot, cold, wet, or windy it might be!

Date:

Astronomy

Dec. 22, 2012 Rise Set
Actual Time 7:37 AM CST 5:44 PM CST
Civil Twilight 7:10 AM CST 6:11 PM CST
Nautical Twilight 6:40 AM CST 6:41 PM CST
Astronomical Twilight 6:10 AM CST 7:11 PM CST
Moon 1:52 PM CST (12/22) 2:36 AM CST (12/22)
Length of Visible Light 11h 00m
Length of Day
10h 06m
Waxing Gibbous, 74% of the Moon is Illuminated
Dec 22
Waxing Gibbous
Dec 28
Full
Jan 4
Last Quarter
Jan 11
New
Jan 18
First Quarter

Hourly Weather History & Observations

Time (CST) Temp. Windchill Dew Point Humidity Pressure Visibility Wind Dir Wind Speed Gust Speed Precip Events Conditions
12:51 AM 34.0 °F - 7.0 °F 32% 30.29 in 10.0 mi Calm Calm - N/A   Clear
1:51 AM 34.0 °F 31.0 °F 7.0 °F 32% 30.27 in 10.0 mi SSW 3.5 mph - N/A   Clear
2:51 AM 36.0 °F 33.3 °F 5.0 °F 27% 30.24 in 10.0 mi South 3.5 mph - N/A   Clear
4:51 AM 39.9 °F - 3.9 °F 22% 30.22 in 10.0 mi Calm Calm - N/A   Clear
5:51 AM 43.0 °F 35.7 °F 3.0 °F 19% 30.23 in 10.0 mi SSW 15.0 mph - N/A   Clear
6:51 AM 42.1 °F 38.4 °F 8.1 °F 25% 30.23 in 10.0 mi South 5.8 mph - N/A   Clear
7:51 AM 39.9 °F - 14.0 °F 35% 30.25 in 10.0 mi Calm Calm - N/A   Clear
8:51 AM 46.9 °F - 30.9 °F 54% 30.24 in 10.0 mi Variable 6.9 mph - N/A   Clear
9:51 AM 51.1 °F - 37.0 °F 59% 30.25 in 10.0 mi South 16.1 mph 23.0 mph N/A   Clear
10:51 AM 55.0 °F - 37.0 °F 51% 30.24 in 10.0 mi SSW 16.1 mph 25.3 mph N/A   Clear
11:51 AM 59.0 °F - 39.9 °F 49% 30.21 in 10.0 mi SSW 19.6 mph 25.3 mph N/A   Clear
12:51 PM 61.0 °F - 37.9 °F 42% 30.15 in 10.0 mi South 17.3 mph 27.6 mph N/A   Clear
1:51 PM 64.9 °F - 37.0 °F 36% 30.11 in 10.0 mi South 18.4 mph 29.9 mph N/A   Clear
2:51 PM 66.0 °F - 37.9 °F 36% 30.09 in 10.0 mi SSW 20.7 mph 27.6 mph N/A   Clear
3:51 PM 63.0 °F - 39.9 °F 43% 30.07 in 10.0 mi South 13.8 mph 24.2 mph N/A   Mostly Cloudy
4:51 PM 63.0 °F - 39.9 °F 43% 30.03 in 10.0 mi South 17.3 mph 21.9 mph N/A   Clear
5:51 PM 60.1 °F - 41.0 °F 49% 30.04 in 10.0 mi SSW 11.5 mph - N/A   Clear
6:51 PM 57.9 °F - 43.0 °F 58% 30.07 in 10.0 mi SSW 6.9 mph - N/A   Clear
8:51 PM 55.9 °F - 44.1 °F 64% 30.07 in 10.0 mi SSW 9.2 mph - N/A   Clear
9:51 PM 55.0 °F - 45.0 °F 69% 30.07 in 10.0 mi SSW 10.4 mph - N/A   Clear
10:51 PM 55.0 °F - 45.0 °F 69% 30.06 in 10.0 mi SW 10.4 mph - N/A   Clear
11:51 PM 55.0 °F - 46.0 °F 72% 30.02 in 10.0 mi SSW 12.7 mph - N/A   Clear